Regional Weather Roundup
Issued by NWS

Home | Current Version | Previous Version | Text Only | Print | Product List | Glossary On
Versions: 1 2 3 4 5 6 7 8 9 10 11 12 13 14 15 16 17 18 19 20 21 22 23 24 25 26 27 28 29 30 31 32 33 34 35 36 37 38 39 40 41 42 43 44 45 46 47 48
000
ASUS42 KFFC 221703
RWRGA
WEATHER ROUNDUP FOR GEORGIA
NATIONAL WEATHER SERVICE PEACHTREE CITY GA
100 PM EDT TUE JUL 22 2014

NOTE: "FAIR" INDICATES FEW OR NO CLOUDS BELOW 12,000 FEET WITH NO
SIGNIFICANT WEATHER AND/OR OBSTRUCTIONS TO VISIBILITY.

* = USE WITH CAUTION. THE STATIONS MARKED WITH AN ASTERISK MAY NOT
REPORT WEATHER SUCH AS PRECIPITATION, FOG, OR THUNDER AND ARE NOT
QUALITY CONTROLLED BY NWS.

THE REMARK "TC" DENOTES TEMPERATURE READING IN DEGREES CELSIUS.

GAZ001>058-221800-
NORTH GEORGIA

CITY           SKY/WX    TMP DP  RH WIND       PRES   REMARKS
ATLANTA        CLOUDY    77  69  76 VRB3      30.14F
ATHENS         CLOUDY    81  70  69 VRB5      30.14F
CHAMBLEE       CLOUDY    78  68  71 VRB3      30.15F
PEACHTREE CITY CLOUDY    80  69  69 E3        30.14F
ROME           MOSUNNY   84  71  65 E6        30.11F
WEST ATLANTA   CLOUDY    79  69  71 SE5       30.13F
GAINESVILLE    CLOUDY    76  69  79 E7        30.19S
CARTERSVILLE   PTSUNNY   84  68  58 SE7       30.13F


CITY           SKY/WX    TMP DP  RH WIND       PRES   REMARKS
DALTON*        PTSUNNY   82  70  65 E3        30.12F
LAWRENCEVILLE* PTSUNNY   79  66  65 E5        30.16S
MARIETTA       CLOUDY    79  72  78 E7        30.15F
$$

GAZ059>098-102>109-221800-
CENTRAL GEORGIA

CITY           SKY/WX    TMP DP  RH WIND       PRES   REMARKS
AUGUSTA-BUSH   PTSUNNY   81  71  71 CALM      30.10F
AUGUSTA-DANIEL CLOUDY    81  73  76 VRB3      30.12F
COLUMBUS       CLOUDY    77  72  84 E6        30.11F
MACON          CLOUDY    78  73  84 E6        30.12F
ROBINS AFB     CLOUDY    78  72  83 E3        30.12F


CITY           SKY/WX    TMP DP  RH WIND       PRES   REMARKS
LAGRANGE*      CLOUDY    83  74  74 E3        30.12F HX  90
SYLVANIA*      SUNNY     85  77  76 SE3       30.11F HX  95
MILLEDGEVILLE* CLOUDY    63  59  88 CALM      30.13S
$$

GAZ099>101-110>166-221800-
SOUTH GEORGIA

CITY           SKY/WX    TMP DP  RH WIND       PRES   REMARKS
SAVANNAH       PTSUNNY   87  71  58 CALM      30.10F HX  93
VALDOSTA       CLOUDY    86  72  62 NE5       30.08F HX  92
ALMA           PTSUNNY   86  69  56 CALM      30.09F HX  90
ST SIMONS      MOSUNNY   85  74  69 E7        30.09F HX  92
FT STEWART     PTSUNNY   87  72  61 N2        30.09F HX  93
ALBANY         PTSUNNY   84  70  61 CALM      30.10F
HUNTER AFB     PTSUNNY   85  73  67 VRB3      30.08F HX  92
MOODY AFB      LGT RAIN  77  76  95 E6        30.09S
BRUNSWICK      PTSUNNY   86  70  58 CALM      30.11S HX  90


CITY           SKY/WX    TMP DP  RH WIND       PRES   REMARKS
BAINBRIDGE*    SUNNY     88  73  62 CALM      30.08S HX  96
MOULTRIE*      PTSUNNY   82  72  69 CALM      30.09F
VIDALIA*         N/A     86  73  66 CALM      30.10F HX  93
WAYCROSS*      PTSUNNY   90  74  58 CALM      30.08F HX  99
DOUGLAS*       PTSUNNY   86  72  62 CALM      30.11F HX  92
$$


USA.gov is the U.S. government's official web portal to all federal, state and local government web resources and services.